Whitefield, NH

6:46 AM EDT on May 30, 2017 (GMT -0400)
Mount Washington Regional

Weather History for KHIE - July, 2013

Change the Weather History Date:

Thursday, July 11, 2013

  Actual Average Record
Temperature  
Mean Temperature 68 °F -  
Max Temperature 81 °F 74 °F 88 °F (2011)
Min Temperature 55 °F 48 °F 39 °F (2000)
Cooling Degree Days 2    
Growing Degree Days 18 (Base 50)    
Moisture  
Dew Point 63 °F    
Average Humidity 85    
Maximum Humidity 94    
Minimum Humidity 50    
Precipitation  
Precipitation 0.18 in - - ()
Sea Level Pressure  
Sea Level Pressure 29.84 in    
Wind  
Wind Speed 1 mph (NW)    
Max Wind Speed 8 mph    
Max Gust Speed -    
Visibility 6 miles    
Events Fog , Rain , Thunderstorm    
Averages and records for this station are not official NWS values.
T = Trace of Precipitation, MM = Missing Value Source: NWS Daily Summary

Daily Weather History Graph

Daily Weather History Graph

Search for Another Location

Airport or City:

Trip Planner

Search our weather history database for the weather conditions in past years. The results will help you decide how hot, cold, wet, or windy it might be!

Date:

Astronomy

Jul. 11, 2013 Rise Set
Actual Time 5:12 AM EDT 8:30 PM EDT
Civil Twilight 4:37 AM EDT 9:05 PM EDT
Nautical Twilight 3:50 AM EDT 9:52 PM EDT
Astronomical Twilight 2:53 AM EDT 10:49 PM EDT
Moon 8:37 AM EDT (7/11) 9:58 PM EDT (7/11)
Length of Visible Light 16h 28m
Length of Day
15h 17m
Waxing Crescent, 10% of the Moon is Illuminated
Jul 11
Waxing Crescent
Jul 15
First Quarter
Jul 22
Full
Jul 29
Last Quarter
Aug 6
New

Hourly Weather History & Observations

Time (EDT) Temp. Dew Point Humidity Pressure Visibility Wind Dir Wind Speed Gust Speed Precip Events Conditions
12:21 AM 66.2 °F 64.4 °F 94% 29.79 in 5.0 mi Calm Calm - N/A   Mostly Cloudy
12:36 AM 66.2 °F 64.4 °F 94% 29.79 in 5.0 mi Calm Calm - N/A   Overcast
12:52 AM 66.0 °F 64.0 °F 93% 29.78 in 5.0 mi Calm Calm - N/A   Mostly Cloudy
1:04 AM 66.2 °F 62.6 °F 88% 29.79 in 5.0 mi Calm Calm - N/A   Scattered Clouds
1:09 AM 66.2 °F 62.6 °F 88% 29.79 in 1.8 mi Calm Calm - N/A   Partly Cloudy
1:17 AM 64.4 °F 62.6 °F 94% 29.78 in 3.0 mi Calm Calm - N/A   Partly Cloudy
1:32 AM 64.4 °F 62.6 °F 94% 29.78 in 1.8 mi Calm Calm - N/A   Scattered Clouds
1:35 AM 64.4 °F 62.6 °F 94% 29.78 in 1.0 mi Calm Calm - N/A   Mist
1:42 AM 64.4 °F 62.6 °F 94% 29.78 in 0.5 mi Calm Calm - N/A Fog Fog
1:52 AM 64.9 °F 62.1 °F 90% 29.77 in 0.5 mi Calm Calm - N/A Fog Fog
2:08 AM 64.4 °F 62.6 °F 94% 29.78 in 1.0 mi Calm Calm - N/A   Overcast
2:15 AM 64.4 °F 62.6 °F 94% 29.77 in 0.5 mi Calm Calm - N/A Fog Fog
2:27 AM 64.4 °F 62.6 °F 94% 29.77 in 1.0 mi Calm Calm - N/A   Overcast
2:33 AM 64.4 °F 62.6 °F 94% 29.77 in 1.2 mi Calm Calm - N/A   Overcast
2:47 AM 64.0 °F 62.1 °F 93% 29.75 in 3.0 mi Calm Calm - N/A   Mostly Cloudy
2:55 AM 64.4 °F 62.6 °F 94% 29.77 in 5.0 mi Calm Calm - N/A   Mostly Cloudy
3:09 AM 64.4 °F 62.6 °F 94% 29.78 in 4.0 mi Calm Calm - N/A   Mostly Cloudy
3:24 AM 64.4 °F 62.6 °F 94% 29.78 in 5.0 mi Calm Calm - N/A   Mostly Cloudy
3:38 AM 64.4 °F 60.8 °F 88% 29.78 in 8.0 mi Calm Calm - N/A   Scattered Clouds
3:48 AM 64.4 °F 62.6 °F 94% 29.78 in 9.0 mi Calm Calm - N/A   Mostly Cloudy
3:52 AM 64.0 °F 62.1 °F 93% 29.77 in 9.0 mi Calm Calm - N/A   Mostly Cloudy
3:59 AM 64.4 °F 62.6 °F 94% 29.78 in 9.0 mi Calm Calm - N/A   Mostly Cloudy
4:12 AM 64.4 °F 62.6 °F 94% 29.79 in 10.0 mi Calm Calm - N/A Thunderstorm Mostly Cloudy
4:24 AM 64.4 °F 62.6 °F 94% 29.80 in 9.0 mi WNW 3.5 mph - N/A Thunderstorm Overcast
4:39 AM 68.0 °F 64.4 °F 88% 29.80 in 6.0 mi NNE 3.5 mph - 0.04 in Rain Light Rain
4:52 AM 68.0 °F 64.0 °F 87% 29.81 in 10.0 mi Calm Calm - 0.04 in Rain Light Rain
5:52 AM 66.0 °F 64.0 °F 93% 29.82 in 5.0 mi Calm Calm - 0.00 in   Scattered Clouds
6:52 AM 68.0 °F 64.9 °F 90% 29.81 in 6.0 mi Calm Calm - 0.01 in Rain Light Rain
7:52 AM 68.0 °F 64.9 °F 90% 29.83 in 6.0 mi NW 3.5 mph - 0.00 in Rain Light Rain
7:58 AM 68.0 °F 64.4 °F 88% 29.84 in 1.5 mi Calm Calm - 0.05 in Rain Light Rain
8:14 AM 68.0 °F 66.2 °F 94% 29.85 in 2.5 mi Calm Calm - 0.08 in Rain Light Rain
8:21 AM 69.8 °F 64.4 °F 83% 29.85 in 5.0 mi Calm Calm - 0.08 in Rain Light Rain
8:48 AM 69.8 °F 66.2 °F 88% 29.85 in 2.0 mi Calm Calm - 0.11 in Rain Light Rain
8:52 AM 69.1 °F 66.0 °F 90% 29.84 in 2.5 mi Calm Calm - 0.11 in Rain Light Rain
9:00 AM 69.8 °F 66.2 °F 88% 29.85 in 3.0 mi Calm Calm - 0.02 in Rain Light Rain
9:52 AM 71.1 °F 66.9 °F 87% 29.85 in 10.0 mi Calm Calm - 0.02 in   Overcast
10:09 AM 71.6 °F 66.2 °F 83% 29.87 in 10.0 mi Calm Calm - N/A   Overcast
10:19 AM 71.6 °F 66.2 °F 83% 29.87 in 10.0 mi Calm Calm - N/A   Overcast
10:28 AM 71.6 °F 66.2 °F 83% 29.86 in 10.0 mi Calm Calm - N/A   Overcast
10:40 AM 71.6 °F 66.2 °F 83% 29.86 in 10.0 mi Calm Calm - N/A   Overcast
10:46 AM 71.6 °F 66.2 °F 83% 29.86 in 10.0 mi Calm Calm - N/A   Overcast
10:52 AM 72.0 °F 66.0 °F 81% 29.86 in 10.0 mi Calm Calm - N/A   Overcast
11:02 AM 73.4 °F 66.2 °F 78% 29.86 in 10.0 mi Calm Calm - N/A   Overcast
11:37 AM 73.4 °F 64.4 °F 73% 29.87 in 10.0 mi SW 3.5 mph - N/A   Overcast
11:52 AM 73.0 °F 66.0 °F 79% 29.86 in 10.0 mi Calm Calm - N/A   Overcast
12:52 PM 73.0 °F 63.0 °F 71% 29.86 in 10.0 mi SW 3.5 mph - N/A   Overcast
1:52 PM 73.9 °F 64.0 °F 71% 29.87 in 10.0 mi Variable 5.8 mph - N/A   Mostly Cloudy
2:52 PM 75.9 °F 64.0 °F 67% 29.87 in 10.0 mi Variable 3.5 mph - N/A   Mostly Cloudy
3:52 PM 77.0 °F 63.0 °F 62% 29.87 in 10.0 mi Variable 3.5 mph - N/A   Overcast
4:52 PM 78.1 °F 61.0 °F 56% 29.88 in 10.0 mi NNW 4.6 mph - N/A   Overcast
5:52 PM 75.0 °F 57.9 °F 55% 29.91 in 10.0 mi North 6.9 mph - N/A   Overcast
6:52 PM 75.0 °F 55.0 °F 50% 29.93 in 10.0 mi North 8.1 mph - N/A   Clear
7:52 PM 71.1 °F 57.0 °F 61% 29.96 in 10.0 mi NNW 3.5 mph - N/A   Clear
8:52 PM 63.0 °F 59.0 °F 87% 29.98 in 10.0 mi Calm Calm - N/A   Clear
9:52 PM 60.1 °F 57.0 °F 90% 30.00 in 10.0 mi Calm Calm - N/A   Clear
10:52 PM 57.9 °F 55.0 °F 90% 30.02 in 10.0 mi Calm Calm - N/A   Clear
11:52 PM 55.9 °F 53.1 °F 90% 30.04 in 10.0 mi Calm Calm - N/A   Clear